QPF
0.00 0.00 0.00 0.00 0.00 0.00 0.01 0.00 0.08 0.19 0.13 0.08 0.07 0.10 0.12 0.12 0.09 0.02 0.00 0.00 0.00 0.00 0.00 0.00 0.00 0.00 0.00 0.00 0.00 0.00 0.00 0.00
0.00 0.00 0.00 0.00 0.00 0.00 0.00 0.01 0.03 0.06 0.08 0.04 0.06 0.05 0.05 0.06 0.06 0.03 0.01 0.00 0.00 0.00 0.00 0.00 0.00 0.00 0.00 0.00 0.00 0.02 0.01 0.00
0.00 0.00 0.00 0.00 0.00 0.00 0.00 0.00 0.00 0.00 0.01 0.01 0.03 0.04 0.03 0.02 0.04 0.03 0.02 0.00 0.00 0.00 0.00 0.00 0.00 0.00 0.00 0.00 0.00 0.01 0.02 0.03
0.00 0.00 0.00 0.00 0.00 0.00 0.00 0.00 0.00 0.00 0.00 0.00 0.02 0.03 0.02 0.02 0.04 0.05 0.07 0.01 0.00 0.00 0.00 0.00 0.00 0.00 0.00 0.00 0.00 0.00 0.01 0.02
0.00 0.00 0.00 0.00 0.00 0.00 0.00 0.00 0.00 0.00 0.00 0.00 0.00 0.00 0.00 0.00 0.00 0.03 0.10 0.06 0.00 0.00 0.00 0.00 0.00 0.00 0.02 0.01 0.00 0.01 0.03 0.08
0.00 0.00 0.00 0.00 0.00 0.00 0.00 0.00 0.00 0.00 0.00 0.00 0.00 0.00 0.00 0.00 0.01 0.03 0.10 0.16 0.02 0.01 0.01 0.02 0.02 0.01 0.06 0.07 0.02 0.00 0.01 0.08
0.00 0.00 0.00 0.00 0.00 0.00 0.00 0.00 0.00 0.00 0.00 0.00 0.00 0.00 0.00 0.00 0.01 0.01 0.03 0.08 0.05 0.02 0.01 0.02 0.04 0.04 0.05 0.06 0.06 0.06 0.04 0.03
0.00 0.00 0.00 0.00 0.00 0.00 0.00 0.00 0.00 0.00 0.00 0.00 0.00 0.00 0.00 0.00 0.00 0.00 0.00 0.00 0.00 0.00 0.00 0.00 0.01 0.02 0.02 0.03 0.04 0.05 0.03 0.02
0.00 0.00 0.00 0.00 0.00 0.00 0.00 0.00 0.00 0.00 0.00 0.00 0.00 0.00 0.00 0.00 0.00 0.00 0.00 0.00 0.00 0.00 0.00 0.00 0.00 0.01 0.02 0.02 0.01 0.01 0.01 0.01
0.00 0.00 0.00 0.00 0.00 0.00 0.00 0.00 0.00 0.00 0.00 0.00 0.00 0.00 0.00 0.00 0.00 0.00 0.00 0.00 0.00 0.00 0.00 0.00 0.00 0.00 0.01 0.01 0.00 0.00 0.00 0.00
0.00 0.00 0.00 0.00 0.00 0.00 0.00 0.00 0.00 0.00 0.00 0.00 0.00 0.00 0.00 0.00 0.00 0.00 0.00 0.00 0.00 0.00 0.00 0.00 0.00 0.00 0.00 0.00 0.00 0.00 0.00 0.00
0.00 0.00 0.00 0.00 0.00 0.00 0.00 0.00 0.00 0.00 0.00 0.00 0.00 0.00 0.00 0.00 0.00 0.00 0.00 0.00 0.00 0.00 0.00 0.00 0.00 0.00 0.00 0.00 0.00 0.00 0.00 0.00
0.00 0.00 0.00 0.00 0.00 0.00 0.00 0.00 0.00 0.00 0.00 0.00 0.00 0.00 0.00 0.00 0.00 0.00 0.00 0.00 0.00 0.00 0.00 0.00 0.00 0.00 0.00 0.00 0.00 0.00 0.01 0.03
0.00 0.00 0.00 0.00 0.00 0.00 0.00 0.00 0.00 0.00 0.00 0.00 0.00 0.00 0.00 0.00 0.00 0.00 0.00 0.00 0.00 0.00 0.00 0.00 0.00 0.00 0.00 0.00 0.01 0.04 0.09 0.14
0.00 0.00 0.00 0.00 0.00 0.00 0.00 0.00 0.00 0.00 0.00 0.00 0.00 0.00 0.00 0.00 0.00 0.00 0.00 0.00 0.00 0.00 0.00 0.00 0.00 0.00 0.00 0.00 0.00 0.03 0.09 0.14
0.00 0.00 0.00 0.00 0.00 0.00 0.00 0.00 0.00 0.00 0.00 0.00 0.00 0.00 0.00 0.00 0.00 0.00 0.00 0.00 0.00 0.00 0.00 0.00 0.00 0.00 0.00 0.00 0.02 0.06 0.09 0.11
0.00 0.00 0.00 0.00 0.00 0.00 0.00 0.00 0.00 0.00 0.00 0.00 0.00 0.00 0.00 0.00 0.00 0.00 0.00 0.00 0.00 0.00 0.00 0.00 0.00 0.00 0.00 0.01 0.01 0.01 0.02 0.02
0.00 0.00 0.00 0.00 0.00 0.00 0.00 0.00 0.00 0.00 0.00 0.00 0.00 0.00 0.00 0.00 0.00 0.00 0.00 0.00 0.00 0.00 0.00 0.00 0.00 0.00 0.00 0.01 0.01 0.01 0.01 0.00
0.00 0.00 0.00 0.00 0.00 0.00 0.00 0.00 0.00 0.00 0.00 0.00 0.00 0.00 0.00 0.00 0.00 0.00 0.00 0.00 0.00 0.00 0.00 0.00 0.00 0.00 0.00 0.01 0.03 0.01 0.02 0.03
MSLP
1008.58 1009.51 1010.10 1010.78 1011.29 1011.87 1012.50 1012.93 1013.29 1013.84 1014.44 1014.92 1015.38 1015.91 1016.42 1017.14 1017.72 1018.14 1018.27 1018.31 1018.75 1019.12 1019.71 1020.31 1020.56 1021.02 1021.60 1021.95 1022.28 1022.53 1022.69 1022.97
1007.99 1009.10 1010.00 1010.60 1011.20 1011.72 1012.11 1012.87 1013.33 1013.74 1014.05 1014.66 1015.38 1015.74 1016.42 1016.86 1017.42 1018.01 1018.31 1018.61 1018.80 1019.19 1019.50 1020.16 1020.60 1021.05 1021.33 1021.72 1022.29 1022.67 1022.86 1023.22
1007.33 1008.48 1009.29 1010.01 1010.85 1011.40 1011.96 1012.52 1013.12 1013.59 1014.03 1014.48 1015.06 1015.53 1015.85 1016.48 1017.12 1017.54 1018.23 1018.56 1018.79 1019.37 1019.76 1020.18 1020.64 1020.97 1021.26 1021.63 1022.28 1022.76 1022.85 1023.24
1006.42 1007.57 1008.55 1009.30 1010.40 1010.94 1011.26 1012.01 1012.75 1013.18 1013.64 1013.99 1014.87 1015.45 1016.02 1016.48 1016.95 1017.82 1018.23 1018.73 1018.55 1019.40 1019.84 1020.19 1020.56 1020.76 1020.78 1021.59 1022.13 1022.22 1022.29 1022.89
1005.35 1006.49 1007.60 1008.39 1009.30 1010.50 1010.89 1011.53 1012.04 1012.82 1013.28 1013.74 1014.19 1014.74 1015.40 1015.78 1016.63 1017.37 1018.11 1018.46 1018.72 1019.12 1019.73 1020.32 1020.32 1020.50 1020.79 1021.38 1021.78 1021.60 1021.50 1021.85
1004.07 1005.32 1006.48 1007.62 1008.55 1009.66 1010.48 1010.92 1011.10 1012.18 1012.89 1013.09 1013.72 1014.23 1014.97 1015.61 1016.29 1016.87 1017.47 1018.17 1018.68 1018.49 1019.60 1020.08 1020.22 1020.09 1020.49 1020.88 1020.89 1021.12 1021.09 1021.35
1003.18 1004.61 1005.95 1006.93 1008.03 1009.00 1009.83 1010.02 1010.44 1011.18 1011.97 1012.79 1013.48 1013.72 1014.30 1014.95 1015.98 1016.48 1017.35 1017.89 1018.39 1018.43 1018.96 1019.42 1019.48 1019.44 1019.82 1019.96 1020.10 1020.53 1020.51 1020.91
1002.06 1003.38 1004.69 1005.90 1006.90 1008.08 1008.86 1009.16 1009.53 1010.26 1010.92 1011.69 1012.49 1012.91 1013.46 1014.11 1014.69 1015.53 1016.43 1016.93 1017.29 1017.67 1018.24 1018.62 1018.29 1018.32 1019.26 1019.10 1019.70 1019.69 1019.88 1020.34
1001.05 1002.17 1003.51 1004.68 1005.96 1006.92 1007.91 1008.30 1008.68 1009.33 1009.97 1010.50 1011.26 1011.96 1012.54 1012.93 1013.55 1014.07 1014.66 1015.13 1015.86 1016.46 1016.99 1017.31 1017.58 1018.02 1018.21 1018.94 1019.39 1018.77 1019.42 1019.57
1000.16 1001.19 1002.52 1003.68 1004.70 1005.74 1006.76 1007.21 1007.85 1008.47 1009.07 1009.71 1010.18 1010.75 1011.33 1011.65 1012.37 1013.05 1013.57 1014.24 1014.79 1015.56 1016.02 1016.55 1016.84 1017.15 1017.27 1017.98 1017.79 1018.04 1018.47 1018.68
999.46 1000.31 1001.57 1002.61 1003.85 1005.08 1006.19 1006.48 1006.92 1007.71 1008.39 1008.73 1009.25 1009.72 1010.14 1010.69 1011.34 1011.74 1012.27 1013.03 1013.58 1014.09 1014.72 1015.39 1015.80 1016.14 1016.43 1016.75 1016.82 1017.13 1017.48 1017.55
999.11 999.68 1000.64 1001.87 1002.68 1003.89 1005.01 1005.62 1006.07 1006.64 1007.32 1007.79 1008.21 1008.73 1009.33 1009.74 1009.94 1010.62 1011.36 1012.14 1012.58 1013.02 1013.70 1014.22 1014.56 1014.85 1015.26 1015.66 1015.83 1016.23 1016.44 1016.53
998.60 999.26 1000.02 1000.99 1001.75 1002.48 1003.30 1004.43 1005.03 1005.71 1006.44 1006.83 1007.32 1008.01 1008.55 1008.97 1009.18 1009.37 1010.07 1010.68 1011.66 1012.19 1012.86 1013.28 1013.54 1013.84 1014.22 1014.60 1014.96 1015.18 1015.32 1015.46
998.18 999.00 999.37 1000.06 1000.77 1001.53 1002.13 1003.07 1003.79 1004.63 1005.45 1006.12 1006.53 1007.04 1007.35 1007.52 1008.15 1008.85 1009.32 1009.82 1010.27 1011.03 1011.66 1011.98 1012.34 1012.72 1013.07 1013.26 1013.56 1014.09 1014.51 1015.25
997.76 998.11 998.77 999.26 999.82 1000.43 1001.04 1001.75 1002.60 1003.44 1004.25 1004.99 1005.44 1005.69 1006.03 1006.64 1007.28 1008.08 1008.56 1008.87 1009.31 1009.73 1010.19 1010.67 1011.22 1011.66 1012.20 1012.60 1013.11 1013.37 1014.13 1014.18
997.39 997.52 997.74 998.25 998.95 999.56 1000.08 1000.64 1001.46 1002.16 1002.84 1003.45 1003.64 1004.55 1005.19 1005.94 1006.56 1007.14 1007.70 1008.26 1008.59 1008.90 1009.21 1009.57 1010.11 1010.89 1011.38 1011.81 1012.25 1012.58 1013.04 1013.41
997.12 997.13 997.24 997.43 997.76 998.38 999.09 999.60 1000.15 1001.03 1001.60 1001.80 1002.55 1003.29 1004.07 1004.52 1005.28 1005.98 1006.67 1007.19 1007.63 1008.07 1008.37 1008.73 1009.20 1009.87 1010.21 1010.54 1011.04 1011.94 1012.27 1012.59
997.42 997.07 996.90 996.95 997.00 997.20 997.73 998.22 999.32 999.93 1000.34 1000.92 1001.47 1002.18 1002.68 1003.37 1004.17 1004.79 1005.27 1005.85 1006.54 1006.97 1007.51 1008.02 1008.29 1008.82 1009.69 1010.39 1010.92 1011.39 1011.70 1012.09
997.97 997.30 996.80 996.76 996.63 996.61 996.68 997.09 997.90 998.82 999.35 999.81 1000.33 1000.86 1001.62 1002.43 1003.25 1003.78 1004.37 1005.01 1005.73 1006.18 1006.65 1006.98 1007.66 1008.50 1009.19 1009.91 1010.43 1011.11 1011.71 1012.37
Thickness
5662 5656 5653 5646 5640 5634 5628 5624 5617 5611 5607 5605 5604 5601 5600 5596 5593 5591 5592 5593 5593 5593 5592 5591 5591 5589 5586 5584 5583 5582 5583 5581
5664 5657 5650 5645 5640 5634 5629 5622 5617 5611 5609 5606 5603 5601 5598 5597 5593 5591 5590 5589 5589 5589 5589 5587 5586 5583 5582 5581 5580 5576 5575 5573
5663 5657 5653 5648 5640 5636 5630 5625 5618 5612 5607 5606 5603 5600 5600 5596 5592 5593 5590 5589 5589 5586 5584 5583 5580 5579 5579 5577 5572 5569 5570 5567
5665 5658 5654 5651 5640 5637 5635 5628 5620 5615 5611 5609 5601 5597 5594 5592 5591 5587 5586 5585 5587 5582 5580 5578 5577 5577 5579 5572 5569 5569 5568 5566
5671 5664 5658 5654 5648 5637 5635 5630 5626 5619 5614 5609 5606 5601 5593 5594 5589 5586 5583 5581 5581 5579 5576 5573 5574 5573 5574 5570 5567 5570 5573 5571
5678 5669 5665 5657 5652 5642 5635 5633 5633 5623 5616 5615 5607 5603 5595 5590 5587 5584 5583 5578 5575 5580 5572 5570 5570 5573 5571 5568 5569 5568 5571 5572
5684 5675 5667 5660 5653 5645 5638 5638 5636 5630 5623 5614 5606 5605 5599 5593 5585 5583 5577 5573 5573 5574 5572 5569 5569 5572 5571 5571 5571 5569 5571 5571
5688 5680 5671 5665 5658 5649 5644 5643 5640 5634 5629 5622 5615 5612 5606 5600 5596 5589 5580 5577 5577 5576 5573 5572 5576 5576 5570 5572 5570 5573 5573 5570
5692 5687 5678 5672 5663 5656 5648 5646 5644 5640 5634 5629 5622 5617 5612 5609 5604 5600 5595 5593 5588 5585 5581 5580 5581 5577 5576 5569 5569 5577 5572 5572
5694 5691 5683 5676 5670 5663 5655 5652 5648 5643 5639 5634 5631 5626 5620 5618 5612 5606 5603 5599 5595 5589 5586 5586 5584 5581 5580 5575 5580 5580 5575 5576
5695 5693 5686 5680 5673 5664 5656 5656 5652 5645 5640 5638 5634 5632 5629 5625 5620 5617 5612 5607 5604 5600 5596 5590 5587 5585 5583 5580 5582 5580 5576 5578
5691 5692 5689 5682 5678 5670 5662 5658 5655 5651 5645 5641 5638 5635 5632 5630 5629 5623 5617 5610 5606 5602 5597 5593 5589 5587 5585 5582 5583 5580 5577 5578
5690 5688 5687 5682 5679 5676 5670 5663 5659 5654 5648 5646 5641 5635 5632 5630 5628 5627 5621 5616 5607 5601 5595 5592 5591 5588 5585 5581 5579 5579 5578 5578
5688 5682 5683 5681 5679 5676 5674 5668 5663 5658 5652 5646 5643 5638 5634 5635 5630 5625 5621 5618 5613 5605 5600 5597 5593 5589 5585 5583 5583 5579 5577 5571
5683 5684 5680 5680 5680 5678 5675 5671 5666 5661 5654 5648 5645 5643 5640 5635 5631 5624 5620 5618 5614 5610 5605 5600 5594 5589 5583 5578 5574 5575 5570 5570
5679 5680 5683 5681 5677 5676 5675 5672 5668 5663 5657 5654 5653 5645 5640 5633 5628 5624 5620 5615 5612 5608 5605 5602 5596 5589 5583 5578 5575 5574 5571 5566
5674 5676 5678 5680 5680 5677 5673 5672 5669 5663 5659 5659 5654 5649 5642 5637 5630 5623 5618 5614 5609 5605 5603 5600 5596 5590 5586 5581 5579 5572 5569 5565
5662 5669 5671 5674 5678 5680 5675 5674 5667 5662 5660 5657 5653 5648 5644 5638 5631 5626 5621 5615 5609 5606 5601 5596 5595 5591 5580 5573 5569 5568 5565 5561
5649 5660 5667 5670 5674 5675 5677 5675 5670 5661 5658 5656 5653 5650 5644 5638 5630 5626 5621 5615 5608 5605 5600 5596 5591 5586 5575 5569 5564 5559 5552 5547